Year,Month,Day,Hour,Minute,Value (Times are PST for temperature in C)
2015,06,16,15,14,22.20
2015,06,16,15,15,22.20
2015,06,16,15,16,22.20
2015,06,16,15,17,22.20
2015,06,16,15,18,22.20
2015,06,16,15,19,22.20
2015,06,16,15,20,22.30
2015,06,16,15,21,22.30
2015,06,16,15,22,22.40
2015,06,16,15,23,22.40
2015,06,16,15,24,22.40
2015,06,16,15,25,22.40
2015,06,16,15,26,22.50
2015,06,16,15,27,22.50
2015,06,16,15,28,22.50
2015,06,16,15,29,22.50
2015,06,16,15,30,22.60
2015,06,16,15,31,22.60
2015,06,16,15,32,22.60
2015,06,16,15,33,22.60
2015,06,16,15,34,22.60
2015,06,16,15,35,22.60
2015,06,16,15,36,22.70
2015,06,16,15,37,22.60
2015,06,16,15,38,22.60
2015,06,16,15,39,22.60
2015,06,16,15,40,22.70
2015,06,16,15,41,22.70
2015,06,16,15,42,22.70
2015,06,16,15,43,22.80
2015,06,16,15,44,22.80
2015,06,16,15,45,22.90
2015,06,16,15,46,22.80
2015,06,16,15,47,22.80
2015,06,16,15,48,22.80
2015,06,16,15,49,22.80
2015,06,16,15,50,22.80
2015,06,16,15,51,22.90
2015,06,16,15,52,22.90
2015,06,16,15,53,22.80
2015,06,16,15,54,22.80
2015,06,16,15,55,22.70
2015,06,16,15,56,22.70
2015,06,16,15,57,22.70
2015,06,16,15,58,22.70
2015,06,16,15,59,22.70
2015,06,16,16,00,22.70
2015,06,16,16,01,22.80
2015,06,16,16,02,22.80
2015,06,16,16,03,22.80
2015,06,16,16,04,22.80
2015,06,16,16,05,22.80
2015,06,16,16,06,22.80
2015,06,16,16,07,22.80
2015,06,16,16,08,22.80
2015,06,16,16,09,22.80
2015,06,16,16,10,22.80
2015,06,16,16,11,22.80
2015,06,16,16,12,22.80
2015,06,16,16,13,22.90
2015,06,16,16,14,23.00
2015,06,16,16,15,23.00
2015,06,16,16,16,23.00
2015,06,16,16,17,23.00
2015,06,16,16,18,23.00
2015,06,16,16,19,23.10
2015,06,16,16,20,23.10
2015,06,16,16,21,23.10
2015,06,16,16,22,23.10
2015,06,16,16,23,23.10
2015,06,16,16,24,23.20
2015,06,16,16,25,23.20
2015,06,16,16,26,23.20
2015,06,16,16,27,23.20
2015,06,16,16,28,23.30
2015,06,16,16,29,23.30
2015,06,16,16,30,23.30
2015,06,16,16,31,23.30
2015,06,16,16,32,23.40
2015,06,16,16,33,23.40
2015,06,16,16,34,23.40
2015,06,16,16,35,23.30
2015,06,16,16,36,23.20
2015,06,16,16,37,23.20
2015,06,16,16,38,23.10
2015,06,16,16,39,23.10
2015,06,16,16,40,23.10
2015,06,16,16,41,23.00
2015,06,16,16,42,22.90
2015,06,16,16,43,22.90
2015,06,16,16,44,23.00
2015,06,16,16,45,23.00
2015,06,16,16,46,23.10
2015,06,16,16,47,23.20
2015,06,16,16,48,23.10
2015,06,16,16,49,23.00
2015,06,16,16,50,22.90
2015,06,16,16,51,22.80
2015,06,16,16,52,22.80
2015,06,16,16,53,22.80
2015,06,16,16,54,22.80
2015,06,16,16,55,22.80
2015,06,16,16,56,22.80
2015,06,16,16,57,22.90
2015,06,16,16,58,22.90
2015,06,16,16,59,22.90
2015,06,16,17,00,23.00
2015,06,16,17,01,23.00
2015,06,16,17,02,23.00
2015,06,16,17,03,23.00
2015,06,16,17,04,23.00
2015,06,16,17,05,22.90
2015,06,16,17,06,23.00
2015,06,16,17,07,23.00
2015,06,16,17,08,23.10
2015,06,16,17,09,23.10
2015,06,16,17,10,23.10
2015,06,16,17,11,23.10
2015,06,16,17,12,23.00
2015,06,16,17,13,23.00
2015,06,16,17,14,22.90
2015,06,16,17,15,22.90
2015,06,16,17,16,22.80
2015,06,16,17,17,22.80
2015,06,16,17,18,22.80
2015,06,16,17,19,22.70
2015,06,16,17,20,22.70
2015,06,16,17,21,22.70
2015,06,16,17,22,22.80
2015,06,16,17,23,22.80
2015,06,16,17,24,22.80
2015,06,16,17,25,22.80
2015,06,16,17,26,22.80
2015,06,16,17,27,22.80
2015,06,16,17,28,22.90
2015,06,16,17,29,22.90
2015,06,16,17,30,22.90
2015,06,16,17,31,23.00
2015,06,16,17,32,23.00
2015,06,16,17,33,23.00
2015,06,16,17,34,23.00
2015,06,16,17,35,22.90
2015,06,16,17,36,22.90
2015,06,16,17,37,22.90
2015,06,16,17,38,22.80
2015,06,16,17,39,22.70
2015,06,16,17,40,22.70
2015,06,16,17,41,22.70
2015,06,16,17,42,22.80
2015,06,16,17,43,22.80
2015,06,16,17,44,22.80
2015,06,16,17,45,22.70
2015,06,16,17,46,22.70
2015,06,16,17,47,22.70
2015,06,16,17,48,22.70
2015,06,16,17,49,22.70
2015,06,16,17,50,22.70
2015,06,16,17,51,22.70
2015,06,16,17,52,22.70
2015,06,16,17,53,22.70
2015,06,16,17,54,22.70
2015,06,16,17,55,22.80
2015,06,16,17,56,22.80
2015,06,16,17,57,22.80
2015,06,16,17,58,22.80
2015,06,16,17,59,22.80
2015,06,16,18,00,22.80
2015,06,16,18,01,22.80
2015,06,16,18,02,22.80
2015,06,16,18,03,22.70
2015,06,16,18,04,22.70
2015,06,16,18,05,22.70
2015,06,16,18,06,22.70
2015,06,16,18,07,22.70
2015,06,16,18,08,22.60
2015,06,16,18,09,22.60
2015,06,16,18,10,22.60
2015,06,16,18,11,22.60
2015,06,16,18,12,22.60
2015,06,16,18,13,22.60
2015,06,16,18,14,22.60
2015,06,16,18,15,22.60
2015,06,16,18,16,22.70
2015,06,16,18,17,22.70
2015,06,16,18,18,22.70
2015,06,16,18,19,22.70
2015,06,16,18,20,22.70
2015,06,16,18,21,22.70
2015,06,16,18,22,22.60
2015,06,16,18,23,22.60
2015,06,16,18,24,22.50
2015,06,16,18,25,22.40
2015,06,16,18,26,22.30
2015,06,16,18,27,22.30
2015,06,16,18,28,22.20
2015,06,16,18,29,22.20
2015,06,16,18,30,22.10
2015,06,16,18,31,22.10
2015,06,16,18,32,22.10
2015,06,16,18,33,22.10
2015,06,16,18,34,22.00
2015,06,16,18,35,22.10
2015,06,16,18,36,22.10
2015,06,16,18,37,22.10
2015,06,16,18,38,22.10
2015,06,16,18,39,22.00
2015,06,16,18,40,22.00
2015,06,16,18,41,21.90
2015,06,16,18,42,21.80
2015,06,16,18,43,21.80
2015,06,16,18,44,21.70
2015,06,16,18,45,21.70
2015,06,16,18,46,21.60
2015,06,16,18,47,21.50
2015,06,16,18,48,21.50
2015,06,16,18,49,21.40
2015,06,16,18,50,21.40
2015,06,16,18,51,21.40
2015,06,16,18,52,21.30
2015,06,16,18,53,21.40
2015,06,16,18,54,21.40
2015,06,16,18,55,21.40
2015,06,16,18,56,21.40
2015,06,16,18,57,21.50
2015,06,16,18,58,21.50
2015,06,16,18,59,21.50
2015,06,16,19,00,21.50
2015,06,16,19,01,21.50
2015,06,16,19,02,21.40
2015,06,16,19,03,21.40
2015,06,16,19,04,21.40
2015,06,16,19,05,21.40
2015,06,16,19,06,21.40
2015,06,16,19,07,21.40
2015,06,16,19,08,21.40
2015,06,16,19,09,21.30
2015,06,16,19,10,21.30
2015,06,16,19,11,21.30
2015,06,16,19,12,21.30
2015,06,16,19,13,21.30
2015,06,16,19,14,21.30
2015,06,16,19,15,21.20
2015,06,16,19,16,21.20
2015,06,16,19,17,21.10
2015,06,16,19,18,21.10
2015,06,16,19,19,21.10
2015,06,16,19,20,21.10
2015,06,16,19,21,21.10
2015,06,16,19,22,21.10
2015,06,16,19,23,21.10
2015,06,16,19,24,21.10
2015,06,16,19,25,21.10
2015,06,16,19,26,21.10
2015,06,16,19,27,21.10
2015,06,16,19,28,21.10
2015,06,16,19,29,21.10
2015,06,16,19,30,21.10
2015,06,16,19,31,21.10
2015,06,16,19,32,21.10
2015,06,16,19,33,21.10
2015,06,16,19,34,21.10
2015,06,16,19,35,21.10
2015,06,16,19,36,21.20
2015,06,16,19,37,21.20
2015,06,16,19,38,21.20
2015,06,16,19,39,21.20
2015,06,16,19,40,21.20
2015,06,16,19,41,21.20
2015,06,16,19,42,21.20
2015,06,16,19,43,21.20
2015,06,16,19,44,21.20
2015,06,16,19,45,21.30
2015,06,16,19,46,21.30
2015,06,16,19,47,21.30
2015,06,16,19,48,21.30
2015,06,16,19,49,21.30
2015,06,16,19,50,21.20
2015,06,16,19,51,21.30
2015,06,16,19,52,21.30
2015,06,16,19,53,21.30
2015,06,16,19,54,21.20
2015,06,16,19,55,21.20
2015,06,16,19,56,21.20
2015,06,16,19,57,21.20
2015,06,16,19,58,21.20
2015,06,16,19,59,21.20
2015,06,16,20,00,21.20
2015,06,16,20,01,21.20
2015,06,16,20,02,21.20
2015,06,16,20,03,21.20
2015,06,16,20,04,21.20
2015,06,16,20,05,21.20
2015,06,16,20,06,21.20
2015,06,16,20,07,21.20
2015,06,16,20,08,21.20
2015,06,16,20,09,21.20
2015,06,16,20,10,21.20
2015,06,16,20,11,21.10
2015,06,16,20,12,21.10
2015,06,16,20,13,21.10
2015,06,16,20,14,21.10
2015,06,16,20,15,21.10
2015,06,16,20,16,21.10
2015,06,16,20,17,21.10
2015,06,16,20,18,21.10
2015,06,16,20,19,21.10
2015,06,16,20,20,21.00
2015,06,16,20,21,21.00
2015,06,16,20,22,21.00
2015,06,16,20,23,21.00
2015,06,16,20,24,21.00
2015,06,16,20,25,21.00
2015,06,16,20,26,21.00
2015,06,16,20,27,20.90
2015,06,16,20,28,20.90
2015,06,16,20,29,20.90
2015,06,16,20,30,20.90
2015,06,16,20,31,20.80
2015,06,16,20,32,20.80
2015,06,16,20,33,20.80
2015,06,16,20,34,20.80
2015,06,16,20,35,20.70
2015,06,16,20,36,20.70
2015,06,16,20,37,20.60
2015,06,16,20,38,20.60
2015,06,16,20,39,20.50
2015,06,16,20,40,20.50
2015,06,16,20,41,20.40
2015,06,16,20,42,20.40
2015,06,16,20,43,20.30
2015,06,16,20,44,20.30
2015,06,16,20,45,20.20
2015,06,16,20,46,20.20
2015,06,16,20,47,20.10
2015,06,16,20,48,20.10
2015,06,16,20,49,20.00
2015,06,16,20,50,20.00
2015,06,16,20,51,19.90
2015,06,16,20,52,19.90
2015,06,16,20,53,19.90
2015,06,16,20,54,19.80
2015,06,16,20,55,19.80
2015,06,16,20,56,19.80
2015,06,16,20,57,19.70
2015,06,16,20,58,19.70
2015,06,16,20,59,19.60
2015,06,16,21,00,19.60
2015,06,16,21,01,19.60
2015,06,16,21,02,19.50
2015,06,16,21,03,19.40
2015,06,16,21,04,19.40
2015,06,16,21,05,19.30
2015,06,16,21,06,19.30
2015,06,16,21,07,19.20
2015,06,16,21,08,19.20
2015,06,16,21,09,19.20
2015,06,16,21,10,19.10
2015,06,16,21,11,19.10
2015,06,16,21,12,19.10
2015,06,16,21,13,19.00
2015,06,16,21,14,18.90
2015,06,16,21,15,18.90
2015,06,16,21,16,18.90
2015,06,16,21,17,18.80
2015,06,16,21,18,18.80
2015,06,16,21,19,18.80
2015,06,16,21,20,18.70
2015,06,16,21,21,18.70
2015,06,16,21,22,18.60
2015,06,16,21,23,18.60
2015,06,16,21,24,18.50
2015,06,16,21,25,18.40
2015,06,16,21,26,18.30
2015,06,16,21,27,18.30
2015,06,16,21,28,18.20
2015,06,16,21,29,18.10
2015,06,16,21,30,18.10
2015,06,16,21,31,18.00
2015,06,16,21,32,18.00
2015,06,16,21,33,17.90
2015,06,16,21,34,17.90
2015,06,16,21,35,17.90
2015,06,16,21,36,17.80
2015,06,16,21,37,17.80
2015,06,16,21,38,17.80
2015,06,16,21,39,17.70
2015,06,16,21,40,17.70
2015,06,16,21,41,17.70
2015,06,16,21,42,17.60
2015,06,16,21,43,17.60
2015,06,16,21,44,17.60
2015,06,16,21,45,17.50
2015,06,16,21,46,17.50
2015,06,16,21,47,17.40
2015,06,16,21,48,17.40
2015,06,16,21,49,17.40
2015,06,16,21,50,17.30
2015,06,16,21,51,17.30
2015,06,16,21,52,17.30
2015,06,16,21,53,17.20
2015,06,16,21,54,17.20
2015,06,16,21,55,17.20
2015,06,16,21,56,17.10
2015,06,16,21,57,17.10
2015,06,16,21,58,17.00
2015,06,16,21,59,17.00
2015,06,16,22,00,16.90
2015,06,16,22,01,16.90
2015,06,16,22,02,16.90
2015,06,16,22,03,16.80
2015,06,16,22,04,16.80
2015,06,16,22,05,16.80
2015,06,16,22,06,16.70
2015,06,16,22,07,16.70
2015,06,16,22,08,16.70
2015,06,16,22,09,16.60
2015,06,16,22,10,16.60
2015,06,16,22,11,16.60
2015,06,16,22,12,16.50
2015,06,16,22,13,16.50
2015,06,16,22,14,16.50
2015,06,16,22,15,16.40
2015,06,16,22,16,16.40
2015,06,16,22,17,16.40
2015,06,16,22,18,16.40
2015,06,16,22,19,16.40
2015,06,16,22,20,16.40
2015,06,16,22,21,16.30
2015,06,16,22,22,16.30
2015,06,16,22,23,16.30
2015,06,16,22,24,16.30
2015,06,16,22,25,16.30
2015,06,16,22,26,16.30
2015,06,16,22,27,16.20
2015,06,16,22,28,16.20
2015,06,16,22,29,16.20
2015,06,16,22,30,16.20
2015,06,16,22,31,16.20
2015,06,16,22,32,16.10
2015,06,16,22,33,16.10
2015,06,16,22,34,16.10
2015,06,16,22,35,16.10
2015,06,16,22,36,16.00
2015,06,16,22,37,16.00
2015,06,16,22,38,16.00
2015,06,16,22,39,15.90
2015,06,16,22,40,15.90
2015,06,16,22,41,15.90
2015,06,16,22,42,15.90
2015,06,16,22,43,15.80
2015,06,16,22,44,15.80
2015,06,16,22,45,15.80
2015,06,16,22,46,15.80
2015,06,16,22,47,15.80
2015,06,16,22,48,15.70
2015,06,16,22,49,15.70
2015,06,16,22,50,15.70
2015,06,16,22,51,15.70
2015,06,16,22,52,15.70
2015,06,16,22,53,15.70
2015,06,16,22,54,15.70
2015,06,16,22,55,15.60
2015,06,16,22,56,15.60
2015,06,16,22,57,15.60
2015,06,16,22,58,15.60
2015,06,16,22,59,15.60
2015,06,16,23,00,15.60
2015,06,16,23,01,15.60
2015,06,16,23,02,15.50
2015,06,16,23,03,15.50
2015,06,16,23,04,15.50
2015,06,16,23,05,15.50
2015,06,16,23,06,15.50
2015,06,16,23,07,15.40
2015,06,16,23,08,15.40
2015,06,16,23,09,15.40
2015,06,16,23,10,15.40
2015,06,16,23,11,15.40
2015,06,16,23,12,15.40
2015,06,16,23,13,15.40
2015,06,16,23,14,15.40
2015,06,16,23,15,15.40
2015,06,16,23,16,15.30
2015,06,16,23,17,15.30
2015,06,16,23,18,15.30
2015,06,16,23,19,15.30
2015,06,16,23,20,15.30
2015,06,16,23,21,15.30
2015,06,16,23,22,15.30
2015,06,16,23,23,15.20
2015,06,16,23,24,15.20
2015,06,16,23,25,15.20
2015,06,16,23,26,15.20
2015,06,16,23,27,15.20
2015,06,16,23,28,15.20
2015,06,16,23,29,15.20
2015,06,16,23,30,15.10
2015,06,16,23,31,15.10
2015,06,16,23,32,15.10
2015,06,16,23,33,15.10
2015,06,16,23,34,15.10
2015,06,16,23,35,15.10
2015,06,16,23,36,15.10
2015,06,16,23,37,15.10
2015,06,16,23,38,15.10
2015,06,16,23,39,15.10
2015,06,16,23,40,15.10
2015,06,16,23,41,15.10
2015,06,16,23,42,15.00
2015,06,16,23,43,15.00
2015,06,16,23,44,15.00
2015,06,16,23,45,15.00
2015,06,16,23,46,14.90
2015,06,16,23,47,14.90
2015,06,16,23,48,14.90
2015,06,16,23,49,14.90
2015,06,16,23,50,14.90
2015,06,16,23,51,14.90
2015,06,16,23,52,14.80
2015,06,16,23,53,14.80
2015,06,16,23,54,14.80
2015,06,16,23,55,14.80
2015,06,16,23,56,14.80
2015,06,16,23,57,14.80
2015,06,16,23,58,14.80
2015,06,16,23,59,14.80
